This is the latest recevied weather packets stored in our database for station/object F4FTJ-13. If no packets are shown the sender has not sent any weather packets the latest 10 day(s).
| Time | Temp. | Humidity | Pressure | Rain* | Wind** | Luminosity | Snow |
|---|---|---|---|---|---|---|---|
| 1778046037 | 10.56° C | 99% | 1008.4 hPa | 0 mm | - | - | - |
| 1778044238 | 10.56° C | 99% | 1008.4 hPa | 0 mm | - | - | - |
| 1778042137 | 10.56° C | 99% | 1008.1 hPa | 0 mm | - | - | - |
| 1778040337 | 10.56° C | 99% | 1007.9 hPa | 0 mm | - | - | - |
| 1778039738 | 10.56° C | 99% | 1008.2 hPa | 0 mm | - | - | - |
| 1778039437 | 10.56° C | 99% | 1007.8 hPa | 0 mm | - | - | - |
| 1778031937 | 10.56° C | 99% | 1008.3 hPa | 4.83 mm | - | - | - |
| 1778030137 | 11.11° C | 99% | 1008.3 hPa | 1.27 mm | - | - | - |
| 1778028038 | 11.11° C | 99% | 1008.4 hPa | 0 mm | - | - | - |
| 1778026837 | 11.11° C | 99% | 1008.6 hPa | 0 mm | - | - | - |
| 1778026537 | 11.11° C | 99% | 1008.7 hPa | 0 mm | - | - | - |
| 1778022338 | 11.11° C | 99% | 1008.8 hPa | 0 mm | - | - | - |
| 1778020237 | 11.11° C | 99% | 1008.9 hPa | 0 mm | - | - | - |
| 1778017537 | 11.11° C | 99% | 1009 hPa | 0 mm | - | - | - |
| 1778016937 | 11.11° C | 99% | 1008.8 hPa | 0 mm | - | - | - |
| 1778014537 | 11.11° C | 99% | 1008.7 hPa | 0.25 mm | - | - | - |
| 1778013337 | 11.11° C | 99% | 1008.9 hPa | 0.25 mm | - | - | - |
| 1778011537 | 11.67° C | 99% | 1008.9 hPa | 0.25 mm | - | - | - |
| 1778008538 | 11.67° C | 99% | 1008.5 hPa | 0 mm | - | - | - |
| 1778007037 | 11.67° C | 99% | 1008.5 hPa | 0 mm | - | - | - |
| 1778006737 | 11.67° C | 99% | 1008.5 hPa | 0 mm | - | - | - |
| 1778005838 | 12.22° C | 99% | 1008.4 hPa | 0.25 mm | - | - | - |
| 1778005237 | 12.22° C | 99% | 1008.1 hPa | 0.25 mm | - | - | - |
| 1778004937 | 12.22° C | 99% | 1008.1 hPa | 0.25 mm | - | - | - |
| 1778004037 | 12.22° C | 99% | 1008.1 hPa | 0.25 mm | - | - | - |
* Rain latest hour (hover to see other rain measurements)
** Current wind speed in m/s (hover to see current wind gust speed)